Flag for Austria Weather past 2 weeks in Perg, Upper Austria, Austria

Now
38 °F

Sprinkles. Cloudy.


Feels Like: 32 °F
Forecast: 27 / 44 °F
Wind: 7 mph from West

Location: Amstetten

Current Time: Apr 2, 2015 at 10:35:22 AM

Latest Report: Apr 2, 2015 at 9:00 AM


Visibility: N/A

Pressure: 29.96 "Hg

Humidity: 88%

Dew point: 34 °F

Location of PergLocation

Historic Weather in Perg — Graph

°F

Perg temperature yesterday

Maximum temperature yesterday: 46 °F (at 12:00 AM)
Minimum temperature yesterday: 33 °F (at 11:00 AM)
Average temperature yesterday: 38 °F

Past Weeks' High & Low Weather Summary

 TemperatureHumidityPressure
High61 °F (Mar 24, 4:00 PM)95% (Mar 29, 6:00 AM)30.34 "Hg (Mar 29, 6:00 AM)
Low26 °F (Mar 21, 6:00 AM)30% (Mar 20, 4:00 PM)29.44 "Hg (Mar 31, 1:00 PM)
Average44 °F72%29.97 "Hg
* Reported Mar 18 8:00 AM — Apr 2 9:00 AM, Perg, Weather by CustomWeather, © 2015

Note: Actual official high and low records may vary slightly from our data, if they occured in-between our weather recording intervals... More about our weather records

Advertising

Perg weather history for previous 24 hours

 ConditionsComfort  
Time TempWeatherWind HumidityBarometerVisibility
9:00 AM
Thu, Apr 2
38 °FSprinkles. Cloudy.7 mph88%29.96 "HgN/A
8:00 AM37 °FLight rain. Overcast.6 mph88%29.98 "HgN/A
7:00 AM38 °FChilly.8 mph81%29.98 "HgN/A
6:00 AM37 °FChilly.5 mph87%30.02 "HgN/A
5:00 AM35 °FChilly.2 mph87%30.06 "HgN/A
4:00 AM35 °FChilly.3 mph86%30.09 "HgN/A
3:00 AM35 °FChilly.6 mph86%30.10 "HgN/A
2:00 AM36 °FChilly.6 mph86%30.11 "HgN/A
1:00 AM37 °FSprinkles. Overcast.8 mph81%30.11 "HgN/A
12:00 AM36 °FChilly.6 mph82%30.10 "HgN/A
11:00 PM
Wed, Apr 1
35 °FChilly.7 mph89%30.09 "HgN/A
10:00 PM36 °FSprinkles. Overcast.3 mph89%30.08 "HgN/A
9:00 PM35 °FChilly.5 mph90%30.08 "HgN/A
8:00 PM35 °FChilly.6 mph90%30.07 "HgN/A
7:00 PM38 °FChilly.3 mph79%30.03 "HgN/A
6:00 PM40 °FChilly.5 mph73%30.01 "HgN/A
5:00 PM39 °FChilly.5 mph82%30.01 "HgN/A
4:00 PM36 °FFog.6 mph89%30.00 "HgN/A
3:00 PM37 °FSprinkles. Cloudy.6 mph82%30.00 "HgN/A
2:00 PM35 °FChilly.7 mph90%30.01 "HgN/A
1:00 PM36 °FFog.7 mph87%30.00 "HgN/A
12:00 PM35 °FChilly.5 mph84%29.99 "HgN/A
11:00 AM33 °FChilly.8 mph95%30.00 "HgN/A
10:00 AM34 °FChilly.3 mph92%29.95 "HgN/A
Weather by CustomWeather, © 2015

See weather overviewHow to use our weather pages